Regional Weather Roundup
Issued by NWS Green Bay, WI

Home | Current Version | Previous Version | Text Only | Print | Product List | Glossary On
Versions: 1 2 3 4 5 6 7 8 9 10 11 12 13 14 15 16 17 18 19 20 21 22 23 24 25 26 27 28 29 30 31 32 33 34 35 36 37 38 39 40 41 42 43 44 45 46 47 48 49 50
000
ASUS43 KGRB 022200
RWRGRB

NORTH-CENTRAL AND NORTHEAST WISCONSIN REGIONAL WEATHER ROUNDUP
NATIONAL WEATHER SERVICE GREEN BAY WI
500 PM CDT MON MAY 02 2016

WIZ005-009-010>012-018-019-022300-
NORTH CENTRAL WISCONSIN

CITY           SKY/WX    TMP DP  RH WIND       PRES   REMARKS
IRONWOOD         N/A     61  30  31 NW6       29.99F
MANITOWISH WTR NOT AVBL
ARBOR VITAE    NOT AVBL
EAGLE RIVER    NOT AVBL
LAND O LAKES   NOT AVBL
RHINELANDER    CLOUDY    61  29  29 VRB6      30.01F
PHILLIPS       NOT AVBL
ANTIGO         NOT AVBL
TOMAHAWK       NOT AVBL
MERRILL        NOT AVBL
$$

WIZ013-073-022300-
NORTHEAST WISCONSIN

CITY           SKY/WX    TMP DP  RH WIND       PRES   REMARKS
IRON MOUNTAIN  CLOUDY    65  27  23 VRB6      29.97F
MARINETTE      SUNNY     61  28  29 SE13      30.01F
$$

WIZ017-030-035>037-045-022300-
CENTRAL WISCONSIN

CITY           SKY/WX    TMP DP  RH WIND       PRES   REMARKS
MEDFORD        NOT AVBL
WAUSAU         PTSUNNY   64  32  30 CALM      29.99F
MOSINEE        NOT AVBL
MARSHFIELD     CLOUDY    65  31  28 VRB3      30.01F
WISC RAPIDS    PTSUNNY   66  28  24 NW9       30.02F
STEVENS POINT  NOT AVBL
WAUPACA        NOT AVBL
SHAWANO        NOT AVBL
CLINTONVILLE   NOT AVBL
WAUTOMA        CLOUDY    64  30  27 W6        30.00F
$$

WIZ038-039-048-051-022300-
FOX VALLEY

CITY           SKY/WX    TMP DP  RH WIND       PRES   REMARKS
NWS GREEN BAY  SUNNY     63  30  28 CALM      30.01F
APPLETON       MOSUNNY   63  27  25 CALM      30.00F
OSHKOSH        SUNNY     63  32  31 SE5       30.01F
FOND DU LAC    SUNNY     62  33  33 NE6       30.02F
$$

WIZ022-050-052-022300-
EAST CENTRAL WISCONSIN

CITY           SKY/WX    TMP DP  RH WIND       PRES   REMARKS
EPHRAIM        NOT AVBL
STURGEON BAY   SUNNY     57  34  41 E9        30.05F
MANITOWOC      NOT AVBL
SHEBOYGAN      SUNNY     59  34  39 NE9       30.03F
$$

LMZ563-521-522-541>543-022300-
LAKESHORE

STATION/POSITION TIME  TEMP    WIND        PRES    VSBY  WAVE
                       AIR SEA DIR/SP/G                  HT/PER
                 (UTC) (F)     (DEG/KT/KT) (MB)    (MI)  (FT/S)
SHEBOYGAN LKSHOR 2100   48     360/  8/  9 1017.8F
KEWAUNEE LKSHORE 2100   49      90/  2/  4 1016.9F
NORTHPORT PIER   2100   53     150/  8/ 10 1016.9F
N MID LAKE BUOY  2050   42 40  210/  6/  6 1017.5F         0
CHAMBERS ISLAND  2100   59      70/  4/  7 1016.9F
MENOMINEE LKSHOR 2100   53     130/  6/  7 1015.8F
$$



USA.gov is the U.S. government's official web portal to all federal, state and local government web resources and services.